owner,sensor,date,latitude,longitude,vertical_datum,wind_speed,wind_to_direction,wind_speed_of_gust,qcFlag 
WAVCIS,ioos:station:WAVCIS:CSI06:1,2009-04-01T00:00:00Z,28.8667,-90.4833,10.0,4.631,205.0,,'11111222,11111222,99999999' 
WAVCIS,ioos:station:WAVCIS:CSI06:1,2009-04-01T01:00:00Z,28.8667,-90.4833,10.0,3.902,239.0,,'11111222,11111222,99999999' 
WAVCIS,ioos:station:WAVCIS:CSI06:1,2009-04-01T02:00:00Z,28.8667,-90.4833,10.0,4.808,252.0,,'11111222,11111222,99999999' 
WAVCIS,ioos:station:WAVCIS:CSI06:1,2009-04-01T03:00:00Z,28.8667,-90.4833,10.0,5.463,245.0,,'11111222,11111222,99999999' 
WAVCIS,ioos:station:WAVCIS:CSI06:1,2009-04-01T04:00:00Z,28.8667,-90.4833,10.0,7.09,299.0,,'11111222,11111222,99999999' 
WAVCIS,ioos:station:WAVCIS:CSI06:1,2009-04-01T05:00:00Z,28.8667,-90.4833,10.0,6.18,343.0,,'11111222,11111222,99999999' 
WAVCIS,ioos:station:WAVCIS:CSI06:1,2009-04-01T06:00:00Z,28.8667,-90.4833,10.0,10.15,16.0,,'11111222,11111222,99999999' 
WAVCIS,ioos:station:WAVCIS:CSI06:1,2009-04-01T07:00:00Z,28.8667,-90.4833,10.0,9.45,22.0,,'11111222,11111222,99999999' 
WAVCIS,ioos:station:WAVCIS:CSI06:1,2009-04-01T08:00:00Z,28.8667,-90.4833,10.0,7.41,34.0,,'11111222,11111222,99999999' 
WAVCIS,ioos:station:WAVCIS:CSI06:1,2009-04-01T09:00:00Z,28.8667,-90.4833,10.0,10.14,12.0,,'11111222,11111222,99999999' 
WAVCIS,ioos:station:WAVCIS:CSI06:1,2009-04-01T10:00:00Z,28.8667,-90.4833,10.0,10.78,8.0,,'11111222,11111222,99999999' 
WAVCIS,ioos:station:WAVCIS:CSI06:1,2009-04-01T11:00:00Z,28.8667,-90.4833,10.0,14.0,23.0,,'11111222,11111222,99999999' 
WAVCIS,ioos:station:WAVCIS:CSI06:1,2009-04-01T12:00:00Z,28.8667,-90.4833,10.0,13.67,20.0,,'11111222,11111222,99999999' 
WAVCIS,ioos:station:WAVCIS:CSI06:1,2009-04-01T13:00:00Z,28.8667,-90.4833,10.0,12.92,20.0,,'11111222,11111222,99999999' 
WAVCIS,ioos:station:WAVCIS:CSI06:1,2009-04-01T14:00:00Z,28.8667,-90.4833,10.0,13.48,53.0,,'11111222,11111222,99999999' 
WAVCIS,ioos:station:WAVCIS:CSI06:1,2009-04-01T15:00:00Z,28.8667,-90.4833,10.0,14.13,61.0,,'11111222,11111222,99999999' 
WAVCIS,ioos:station:WAVCIS:CSI06:1,2009-04-01T16:00:00Z,28.8667,-90.4833,10.0,11.89,50.0,,'11111222,11111222,99999999' 
WAVCIS,ioos:station:WAVCIS:CSI06:1,2009-04-01T17:00:00Z,28.8667,-90.4833,10.0,12.53,57.0,,'11111222,11111222,99999999' 
WAVCIS,ioos:station:WAVCIS:CSI06:1,2009-04-01T18:00:00Z,28.8667,-90.4833,10.0,11.22,65.0,,'11111222,11111222,99999999' 
WAVCIS,ioos:station:WAVCIS:CSI06:1,2009-04-01T19:00:00Z,28.8667,-90.4833,10.0,9.39,78.0,,'11111222,11111222,99999999' 
WAVCIS,ioos:station:WAVCIS:CSI06:1,2009-04-01T20:00:00Z,28.8667,-90.4833,10.0,10.55,90.0,,'11111222,11111222,99999999' 
WAVCIS,ioos:station:WAVCIS:CSI06:1,2009-04-01T21:00:00Z,28.8667,-90.4833,10.0,7.65,93.0,,'11111222,11111222,99999999' 
WAVCIS,ioos:station:WAVCIS:CSI06:1,2009-04-01T22:00:00Z,28.8667,-90.4833,10.0,5.369,65.0,,'11111222,11111222,99999999' 
WAVCIS,ioos:station:WAVCIS:CSI06:1,2009-04-01T23:00:00Z,28.8667,-90.4833,10.0,6.838,71.0,,'11111222,11111222,99999999' 
WAVCIS,ioos:station:WAVCIS:CSI06:1,2009-04-02T00:00:00Z,28.8667,-90.4833,10.0,9.0,107.0,,'11111222,11111222,99999999' 
WAVCIS,ioos:station:WAVCIS:CSI06:1,2009-04-02T01:00:00Z,28.8667,-90.4833,10.0,8.61,112.0,,'11111222,11111222,99999999' 
WAVCIS,ioos:station:WAVCIS:CSI06:1,2009-04-02T02:00:00Z,28.8667,-90.4833,10.0,9.07,110.0,,'11111222,11111222,99999999' 
WAVCIS,ioos:station:WAVCIS:CSI06:1,2009-04-02T03:00:00Z,28.8667,-90.4833,10.0,10.85,118.0,,'11111222,11111222,99999999' 
WAVCIS,ioos:station:WAVCIS:CSI06:1,2009-04-02T04:00:00Z,28.8667,-90.4833,10.0,10.96,133.0,,'11111222,11111222,99999999' 
WAVCIS,ioos:station:WAVCIS:CSI06:1,2009-04-02T05:00:00Z,28.8667,-90.4833,10.0,10.32,140.0,,'11111222,11111222,99999999' 
WAVCIS,ioos:station:WAVCIS:CSI06:1,2009-04-02T06:00:00Z,28.8667,-90.4833,10.0,10.46,155.0,,'11111222,11111222,99999999' 
WAVCIS,ioos:station:WAVCIS:CSI06:1,2009-04-02T07:00:00Z,28.8667,-90.4833,10.0,7.67,160.0,,'11111222,11111222,99999999' 
WAVCIS,ioos:station:WAVCIS:CSI06:1,2009-04-02T08:00:00Z,28.8667,-90.4833,10.0,4.873,156.0,,'11111222,11111222,99999999' 
WAVCIS,ioos:station:WAVCIS:CSI06:1,2009-04-02T09:00:00Z,28.8667,-90.4833,10.0,4.413,164.0,,'11111222,11111222,99999999' 
WAVCIS,ioos:station:WAVCIS:CSI06:1,2009-04-02T10:00:00Z,28.8667,-90.4833,10.0,1.45,171.0,,'11111222,11111222,99999999' 
WAVCIS,ioos:station:WAVCIS:CSI06:1,2009-04-02T11:00:00Z,28.8667,-90.4833,10.0,2.828,180.0,,'11111222,11111222,99999999' 
WAVCIS,ioos:station:WAVCIS:CSI06:1,2009-04-02T12:00:00Z,28.8667,-90.4833,10.0,9.83,309.0,,'11111222,11111222,99999999' 
WAVCIS,ioos:station:WAVCIS:CSI06:1,2009-04-02T13:00:00Z,28.8667,-90.4833,10.0,0.758,193.0,,'11111222,11111222,99999999' 
WAVCIS,ioos:station:WAVCIS:CSI06:1,2009-04-02T14:00:00Z,28.8667,-90.4833,10.0,3.556,155.0,,'11111222,11111222,99999999' 
WAVCIS,ioos:station:WAVCIS:CSI06:1,2009-04-02T15:00:00Z,28.8667,-90.4833,10.0,7.19,136.0,,'11111222,11111222,99999999' 
WAVCIS,ioos:station:WAVCIS:CSI06:1,2009-04-02T16:00:00Z,28.8667,-90.4833,10.0,8.62,129.0,,'11111222,11111222,99999999' 
WAVCIS,ioos:station:WAVCIS:CSI06:1,2009-04-02T17:00:00Z,28.8667,-90.4833,10.0,11.66,151.0,,'11111222,11111222,99999999' 
WAVCIS,ioos:station:WAVCIS:CSI06:1,2009-04-02T18:00:00Z,28.8667,-90.4833,10.0,12.4,198.0,,'11111222,11111222,99999999' 
WAVCIS,ioos:station:WAVCIS:CSI06:1,2009-04-02T19:00:00Z,28.8667,-90.4833,10.0,14.48,219.0,,'11111222,11111222,99999999' 
WAVCIS,ioos:station:WAVCIS:CSI06:1,2009-04-02T20:00:00Z,28.8667,-90.4833,10.0,14.0,233.0,,'11111222,11111222,99999999' 
WAVCIS,ioos:station:WAVCIS:CSI06:1,2009-04-02T21:00:00Z,28.8667,-90.4833,10.0,15.05,246.0,,'11111222,11111222,99999999' 
WAVCIS,ioos:station:WAVCIS:CSI06:1,2009-04-02T22:00:00Z,28.8667,-90.4833,10.0,11.92,271.0,,'11111222,11111222,99999999' 
WAVCIS,ioos:station:WAVCIS:CSI06:1,2009-04-02T23:00:00Z,28.8667,-90.4833,10.0,11.65,268.0,,'11111222,11111222,99999999' 
WAVCIS,ioos:station:WAVCIS:CSI06:1,2009-04-03T00:00:00Z,28.8667,-90.4833,10.0,13.78,270.0,,'11111222,11111222,99999999' 
WAVCIS,ioos:station:WAVCIS:CSI06:1,2009-04-03T01:00:00Z,28.8667,-90.4833,10.0,12.36,266.0,,'11111222,11111222,99999999' 
WAVCIS,ioos:station:WAVCIS:CSI06:1,2009-04-03T02:00:00Z,28.8667,-90.4833,10.0,13.47,276.0,,'11111222,11111222,99999999' 
WAVCIS,ioos:station:WAVCIS:CSI06:1,2009-04-03T03:00:00Z,28.8667,-90.4833,10.0,13.24,281.0,,'11111222,11111222,99999999' 
WAVCIS,ioos:station:WAVCIS:CSI06:1,2009-04-03T04:00:00Z,28.8667,-90.4833,10.0,13.55,293.0,,'11111222,11111222,99999999' 
WAVCIS,ioos:station:WAVCIS:CSI06:1,2009-04-03T05:00:00Z,28.8667,-90.4833,10.0,13.21,308.0,,'11111222,11111222,99999999' 
WAVCIS,ioos:station:WAVCIS:CSI06:1,2009-04-03T06:00:00Z,28.8667,-90.4833,10.0,14.81,318.0,,'11111222,11111222,99999999' 
WAVCIS,ioos:station:WAVCIS:CSI06:1,2009-04-03T07:00:00Z,28.8667,-90.4833,10.0,14.76,319.0,,'11111222,11111222,99999999' 
WAVCIS,ioos:station:WAVCIS:CSI06:1,2009-04-03T08:00:00Z,28.8667,-90.4833,10.0,13.44,318.0,,'11111222,11111222,99999999' 
WAVCIS,ioos:station:WAVCIS:CSI06:1,2009-04-03T09:00:00Z,28.8667,-90.4833,10.0,11.33,328.0,,'11111222,11111222,99999999' 
WAVCIS,ioos:station:WAVCIS:CSI06:1,2009-04-03T10:00:00Z,28.8667,-90.4833,10.0,10.77,332.0,,'11111222,11111222,99999999' 
WAVCIS,ioos:station:WAVCIS:CSI06:1,2009-04-03T11:00:00Z,28.8667,-90.4833,10.0,9.55,331.0,,'11111222,11111222,99999999' 
WAVCIS,ioos:station:WAVCIS:CSI06:1,2009-04-03T12:00:00Z,28.8667,-90.4833,10.0,7.48,338.0,,'11111222,11111222,99999999' 
WAVCIS,ioos:station:WAVCIS:CSI06:1,2009-04-03T13:00:00Z,28.8667,-90.4833,10.0,5.256,347.0,,'11111222,11111222,99999999' 
WAVCIS,ioos:station:WAVCIS:CSI06:1,2009-04-03T14:00:00Z,28.8667,-90.4833,10.0,3.804,359.0,,'11111222,11111222,99999999' 
WAVCIS,ioos:station:WAVCIS:CSI06:1,2009-04-03T15:00:00Z,28.8667,-90.4833,10.0,4.798,8.0,,'11111222,11111222,99999999' 
WAVCIS,ioos:station:WAVCIS:CSI06:1,2009-04-03T16:00:00Z,28.8667,-90.4833,10.0,4.563,13.0,,'11111222,11111222,99999999' 
WAVCIS,ioos:station:WAVCIS:CSI06:1,2009-04-03T17:00:00Z,28.8667,-90.4833,10.0,3.439,16.0,,'11111222,11111222,99999999' 
WAVCIS,ioos:station:WAVCIS:CSI06:1,2009-04-03T18:00:00Z,28.8667,-90.4833,10.0,2.092,341.0,,'11111222,11111222,99999999' 
WAVCIS,ioos:station:WAVCIS:CSI06:1,2009-04-03T19:00:00Z,28.8667,-90.4833,10.0,2.175,327.0,,'11111222,11111222,99999999' 
WAVCIS,ioos:station:WAVCIS:CSI06:1,2009-04-03T20:00:00Z,28.8667,-90.4833,10.0,2.918,318.0,,'11111222,11111222,99999999' 
WAVCIS,ioos:station:WAVCIS:CSI06:1,2009-04-03T21:00:00Z,28.8667,-90.4833,10.0,2.837,301.0,,'11111222,11111222,99999999' 
WAVCIS,ioos:station:WAVCIS:CSI06:1,2009-04-03T22:00:00Z,28.8667,-90.4833,10.0,1.981,253.0,,'11111222,11111222,99999999' 
WAVCIS,ioos:station:WAVCIS:CSI06:1,2009-04-03T23:00:00Z,28.8667,-90.4833,10.0,1.837,270.0,,'11111222,11111222,99999999' 
WAVCIS,ioos:station:WAVCIS:CSI06:1,2009-04-04T00:00:00Z,28.8667,-90.4833,10.0,2.77,244.0,,'11111222,11111222,99999999' 
WAVCIS,ioos:station:WAVCIS:CSI06:1,2009-04-04T01:00:00Z,28.8667,-90.4833,10.0,3.669,243.0,,'11111222,11111222,99999999' 
WAVCIS,ioos:station:WAVCIS:CSI06:1,2009-04-04T02:00:00Z,28.8667,-90.4833,10.0,1.852,239.0,,'11111222,11111222,99999999' 
WAVCIS,ioos:station:WAVCIS:CSI06:1,2009-04-04T03:00:00Z,28.8667,-90.4833,10.0,1.451,179.0,,'11111222,11111222,99999999' 
WAVCIS,ioos:station:WAVCIS:CSI06:1,2009-04-04T04:00:00Z,28.8667,-90.4833,10.0,2.19,116.0,,'11111222,11111222,99999999' 
WAVCIS,ioos:station:WAVCIS:CSI06:1,2009-04-04T05:00:00Z,28.8667,-90.4833,10.0,3.649,84.0,,'11111222,11111222,99999999' 
WAVCIS,ioos:station:WAVCIS:CSI06:1,2009-04-04T06:00:00Z,28.8667,-90.4833,10.0,3.869,114.0,,'11111222,11111222,99999999' 
WAVCIS,ioos:station:WAVCIS:CSI06:1,2009-04-04T07:00:00Z,28.8667,-90.4833,10.0,4.405,125.0,,'11111222,11111222,99999999' 
WAVCIS,ioos:station:WAVCIS:CSI06:1,2009-04-04T08:00:00Z,28.8667,-90.4833,10.0,4.812,121.0,,'11111222,11111222,99999999' 
WAVCIS,ioos:station:WAVCIS:CSI06:1,2009-04-04T09:00:00Z,28.8667,-90.4833,10.0,5.404,121.0,,'11111222,11111222,99999999' 
WAVCIS,ioos:station:WAVCIS:CSI06:1,2009-04-04T10:00:00Z,28.8667,-90.4833,10.0,6.811,129.0,,'11111222,11111222,99999999' 
WAVCIS,ioos:station:WAVCIS:CSI06:1,2009-04-04T11:00:00Z,28.8667,-90.4833,10.0,7.22,126.0,,'11111222,11111222,99999999' 
WAVCIS,ioos:station:WAVCIS:CSI06:1,2009-04-04T12:00:00Z,28.8667,-90.4833,10.0,8.12,123.0,,'11111222,11111222,99999999' 
WAVCIS,ioos:station:WAVCIS:CSI06:1,2009-04-04T13:00:00Z,28.8667,-90.4833,10.0,7.15,118.0,,'11111222,11111222,99999999' 
WAVCIS,ioos:station:WAVCIS:CSI06:1,2009-04-04T14:00:00Z,28.8667,-90.4833,10.0,7.88,123.0,,'11111222,11111222,99999999' 
WAVCIS,ioos:station:WAVCIS:CSI06:1,2009-04-04T15:00:00Z,28.8667,-90.4833,10.0,8.0,120.0,,'11111222,11111222,99999999' 
WAVCIS,ioos:station:WAVCIS:CSI06:1,2009-04-04T16:00:00Z,28.8667,-90.4833,10.0,8.89,124.0,,'11111222,11111222,99999999' 
WAVCIS,ioos:station:WAVCIS:CSI06:1,2009-04-04T17:00:00Z,28.8667,-90.4833,10.0,9.67,117.0,,'11111222,11111222,99999999' 
WAVCIS,ioos:station:WAVCIS:CSI06:1,2009-04-04T18:00:00Z,28.8667,-90.4833,10.0,9.73,119.0,,'11111222,11111222,99999999' 
WAVCIS,ioos:station:WAVCIS:CSI06:1,2009-04-04T19:00:00Z,28.8667,-90.4833,10.0,10.52,120.0,,'11111222,11111222,99999999' 
WAVCIS,ioos:station:WAVCIS:CSI06:1,2009-04-04T20:00:00Z,28.8667,-90.4833,10.0,10.33,114.0,,'11111222,11111222,99999999' 
WAVCIS,ioos:station:WAVCIS:CSI06:1,2009-04-04T21:00:00Z,28.8667,-90.4833,10.0,9.82,114.0,,'11111222,11111222,99999999' 
WAVCIS,ioos:station:WAVCIS:CSI06:1,2009-04-04T22:00:00Z,28.8667,-90.4833,10.0,9.81,109.0,,'11111222,11111222,99999999' 
WAVCIS,ioos:station:WAVCIS:CSI06:1,2009-04-04T23:00:00Z,28.8667,-90.4833,10.0,9.87,108.0,,'11111222,11111222,99999999' 
WAVCIS,ioos:station:WAVCIS:CSI06:1,2009-04-05T00:00:00Z,28.8667,-90.4833,10.0,9.43,109.0,,'11111222,11111222,99999999' 
WAVCIS,ioos:station:WAVCIS:CSI06:1,2009-04-05T01:00:00Z,28.8667,-90.4833,10.0,9.18,109.0,,'11111222,11111222,99999999' 
WAVCIS,ioos:station:WAVCIS:CSI06:1,2009-04-05T02:00:00Z,28.8667,-90.4833,10.0,8.75,106.0,,'11111222,11111222,99999999' 
WAVCIS,ioos:station:WAVCIS:CSI06:1,2009-04-05T03:00:00Z,28.8667,-90.4833,10.0,8.11,102.0,,'11111222,11111222,99999999' 
WAVCIS,ioos:station:WAVCIS:CSI06:1,2009-04-05T04:00:00Z,28.8667,-90.4833,10.0,9.23,122.0,,'11111222,11111222,99999999' 
WAVCIS,ioos:station:WAVCIS:CSI06:1,2009-04-05T05:00:00Z,28.8667,-90.4833,10.0,10.04,131.0,,'11111222,11111222,99999999' 
WAVCIS,ioos:station:WAVCIS:CSI06:1,2009-04-05T06:00:00Z,28.8667,-90.4833,10.0,11.23,137.0,,'11111222,11111222,99999999' 
WAVCIS,ioos:station:WAVCIS:CSI06:1,2009-04-05T07:00:00Z,28.8667,-90.4833,10.0,8.6,148.0,,'11111222,11111222,99999999' 
WAVCIS,ioos:station:WAVCIS:CSI06:1,2009-04-05T08:00:00Z,28.8667,-90.4833,10.0,7.96,151.0,,'11111222,11111222,99999999' 
WAVCIS,ioos:station:WAVCIS:CSI06:1,2009-04-05T09:00:00Z,28.8667,-90.4833,10.0,6.765,164.0,,'11111222,11111222,99999999' 
WAVCIS,ioos:station:WAVCIS:CSI06:1,2009-04-05T10:00:00Z,28.8667,-90.4833,10.0,4.867,178.0,,'11111222,11111222,99999999' 
WAVCIS,ioos:station:WAVCIS:CSI06:1,2009-04-05T11:00:00Z,28.8667,-90.4833,10.0,6.053,194.0,,'11111222,11111222,99999999' 
WAVCIS,ioos:station:WAVCIS:CSI06:1,2009-04-05T12:00:00Z,28.8667,-90.4833,10.0,5.304,207.0,,'11111222,11111222,99999999' 
WAVCIS,ioos:station:WAVCIS:CSI06:1,2009-04-05T13:00:00Z,28.8667,-90.4833,10.0,3.89,222.0,,'11111222,11111222,99999999' 
WAVCIS,ioos:station:WAVCIS:CSI06:1,2009-04-05T14:00:00Z,28.8667,-90.4833,10.0,4.046,199.0,,'11111222,11111222,99999999' 
WAVCIS,ioos:station:WAVCIS:CSI06:1,2009-04-05T15:00:00Z,28.8667,-90.4833,10.0,4.414,182.0,,'11111222,11111222,99999999' 
WAVCIS,ioos:station:WAVCIS:CSI06:1,2009-04-05T16:00:00Z,28.8667,-90.4833,10.0,3.425,188.0,,'11111222,11111222,99999999' 
WAVCIS,ioos:station:WAVCIS:CSI06:1,2009-04-05T17:00:00Z,28.8667,-90.4833,10.0,4.606,217.0,,'11111222,11111222,99999999' 
WAVCIS,ioos:station:WAVCIS:CSI06:1,2009-04-05T18:00:00Z,28.8667,-90.4833,10.0,6.821,277.0,,'11111222,11111222,99999999' 
WAVCIS,ioos:station:WAVCIS:CSI06:1,2009-04-05T19:00:00Z,28.8667,-90.4833,10.0,7.12,296.0,,'11111222,11111222,99999999' 
WAVCIS,ioos:station:WAVCIS:CSI06:1,2009-04-05T20:00:00Z,28.8667,-90.4833,10.0,5.375,272.0,,'11111222,11111222,99999999' 
WAVCIS,ioos:station:WAVCIS:CSI06:1,2009-04-05T21:00:00Z,28.8667,-90.4833,10.0,5.678,267.0,,'11111222,11111222,99999999' 
WAVCIS,ioos:station:WAVCIS:CSI06:1,2009-04-05T22:00:00Z,28.8667,-90.4833,10.0,5.979,242.0,,'11111222,11111222,99999999' 
WAVCIS,ioos:station:WAVCIS:CSI06:1,2009-04-05T23:00:00Z,28.8667,-90.4833,10.0,5.403,243.0,,'11111222,11111222,99999999' 
WAVCIS,ioos:station:WAVCIS:CSI06:1,2009-04-06T00:00:00Z,28.8667,-90.4833,10.0,6.297,258.0,,'11111222,11111222,99999999' 
WAVCIS,ioos:station:WAVCIS:CSI06:1,2009-04-06T01:00:00Z,28.8667,-90.4833,10.0,6.291,253.0,,'11111222,11111222,99999999' 
WAVCIS,ioos:station:WAVCIS:CSI06:1,2009-04-06T02:00:00Z,28.8667,-90.4833,10.0,7.73,265.0,,'11111222,11111222,99999999' 
WAVCIS,ioos:station:WAVCIS:CSI06:1,2009-04-06T03:00:00Z,28.8667,-90.4833,10.0,10.04,279.0,,'11111222,11111222,99999999' 
WAVCIS,ioos:station:WAVCIS:CSI06:1,2009-04-06T04:00:00Z,28.8667,-90.4833,10.0,11.76,302.0,,'11111222,11111222,99999999' 
WAVCIS,ioos:station:WAVCIS:CSI06:1,2009-04-06T05:00:00Z,28.8667,-90.4833,10.0,14.94,323.0,,'11111222,11111222,99999999' 
WAVCIS,ioos:station:WAVCIS:CSI06:1,2009-04-06T06:00:00Z,28.8667,-90.4833,10.0,16.44,327.0,,'11111222,11111222,99999999' 
WAVCIS,ioos:station:WAVCIS:CSI06:1,2009-04-06T07:00:00Z,28.8667,-90.4833,10.0,17.75,329.0,,'11111222,11111222,99999999' 
WAVCIS,ioos:station:WAVCIS:CSI06:1,2009-04-06T08:00:00Z,28.8667,-90.4833,10.0,16.1,332.0,,'11111222,11111222,99999999' 
WAVCIS,ioos:station:WAVCIS:CSI06:1,2009-04-06T09:00:00Z,28.8667,-90.4833,10.0,17.33,331.0,,'11111222,11111222,99999999' 
WAVCIS,ioos:station:WAVCIS:CSI06:1,2009-04-06T10:00:00Z,28.8667,-90.4833,10.0,15.97,331.0,,'11111222,11111222,99999999' 
WAVCIS,ioos:station:WAVCIS:CSI06:1,2009-04-06T11:00:00Z,28.8667,-90.4833,10.0,14.14,336.0,,'11111222,11111222,99999999' 
WAVCIS,ioos:station:WAVCIS:CSI06:1,2009-04-06T12:00:00Z,28.8667,-90.4833,10.0,15.67,336.0,,'11111222,11111222,99999999' 
WAVCIS,ioos:station:WAVCIS:CSI06:1,2009-04-06T13:00:00Z,28.8667,-90.4833,10.0,14.55,336.0,,'11111222,11111222,99999999' 
WAVCIS,ioos:station:WAVCIS:CSI06:1,2009-04-06T14:00:00Z,28.8667,-90.4833,10.0,15.23,335.0,,'11111222,11111222,99999999' 
WAVCIS,ioos:station:WAVCIS:CSI06:1,2009-04-06T15:00:00Z,28.8667,-90.4833,10.0,12.84,338.0,,'11111222,11111222,99999999' 
WAVCIS,ioos:station:WAVCIS:CSI06:1,2009-04-06T16:00:00Z,28.8667,-90.4833,10.0,11.18,333.0,,'11111222,11111222,99999999' 
WAVCIS,ioos:station:WAVCIS:CSI06:1,2009-04-06T17:00:00Z,28.8667,-90.4833,10.0,11.11,329.0,,'11111222,11111222,99999999' 
WAVCIS,ioos:station:WAVCIS:CSI06:1,2009-04-06T18:00:00Z,28.8667,-90.4833,10.0,11.61,319.0,,'11111222,11111222,99999999' 
WAVCIS,ioos:station:WAVCIS:CSI06:1,2009-04-06T19:00:00Z,28.8667,-90.4833,10.0,12.61,319.0,,'11111222,11111222,99999999' 
WAVCIS,ioos:station:WAVCIS:CSI06:1,2009-04-06T20:00:00Z,28.8667,-90.4833,10.0,13.32,319.0,,'11111222,11111222,99999999' 
WAVCIS,ioos:station:WAVCIS:CSI06:1,2009-04-06T21:00:00Z,28.8667,-90.4833,10.0,14.85,320.0,,'11111222,11111222,99999999' 
WAVCIS,ioos:station:WAVCIS:CSI06:1,2009-04-06T22:00:00Z,28.8667,-90.4833,10.0,15.05,321.0,,'11111222,11111222,99999999' 
WAVCIS,ioos:station:WAVCIS:CSI06:1,2009-04-06T23:00:00Z,28.8667,-90.4833,10.0,13.14,322.0,,'11111222,11111222,99999999' 
WAVCIS,ioos:station:WAVCIS:CSI06:1,2009-04-07T00:00:00Z,28.8667,-90.4833,10.0,14.27,327.0,,'11111222,11111222,99999999' 
WAVCIS,ioos:station:WAVCIS:CSI06:1,2009-04-07T01:00:00Z,28.8667,-90.4833,10.0,11.75,324.0,,'11111222,11111222,99999999' 
WAVCIS,ioos:station:WAVCIS:CSI06:1,2009-04-07T02:00:00Z,28.8667,-90.4833,10.0,13.45,308.0,,'11111222,11111222,99999999' 
WAVCIS,ioos:station:WAVCIS:CSI06:1,2009-04-07T03:00:00Z,28.8667,-90.4833,10.0,15.4,314.0,,'11111222,11111222,99999999' 
WAVCIS,ioos:station:WAVCIS:CSI06:1,2009-04-07T04:00:00Z,28.8667,-90.4833,10.0,16.28,321.0,,'11111222,11111222,99999999' 
WAVCIS,ioos:station:WAVCIS:CSI06:1,2009-04-07T05:00:00Z,28.8667,-90.4833,10.0,12.98,333.0,,'11111222,11111222,99999999' 
WAVCIS,ioos:station:WAVCIS:CSI06:1,2009-04-07T06:00:00Z,28.8667,-90.4833,10.0,15.97,330.0,,'11111222,11111222,99999999' 
WAVCIS,ioos:station:WAVCIS:CSI06:1,2009-04-07T07:00:00Z,28.8667,-90.4833,10.0,15.16,328.0,,'11111222,11111222,99999999' 
WAVCIS,ioos:station:WAVCIS:CSI06:1,2009-04-07T08:00:00Z,28.8667,-90.4833,10.0,14.11,328.0,,'11111222,11111222,99999999' 
WAVCIS,ioos:station:WAVCIS:CSI06:1,2009-04-07T09:00:00Z,28.8667,-90.4833,10.0,14.7,332.0,,'11111222,11111222,99999999' 
WAVCIS,ioos:station:WAVCIS:CSI06:1,2009-04-07T10:00:00Z,28.8667,-90.4833,10.0,14.09,333.0,,'11111222,11111222,99999999' 
WAVCIS,ioos:station:WAVCIS:CSI06:1,2009-04-07T11:00:00Z,28.8667,-90.4833,10.0,14.02,329.0,,'11111222,11111222,99999999' 
WAVCIS,ioos:station:WAVCIS:CSI06:1,2009-04-07T12:00:00Z,28.8667,-90.4833,10.0,12.75,333.0,,'11111222,11111222,99999999' 
WAVCIS,ioos:station:WAVCIS:CSI06:1,2009-04-07T13:00:00Z,28.8667,-90.4833,10.0,12.15,337.0,,'11111222,11111222,99999999' 
WAVCIS,ioos:station:WAVCIS:CSI06:1,2009-04-07T14:00:00Z,28.8667,-90.4833,10.0,10.6,340.0,,'11111222,11111222,99999999' 
WAVCIS,ioos:station:WAVCIS:CSI06:1,2009-04-07T15:00:00Z,28.8667,-90.4833,10.0,8.83,333.0,,'11111222,11111222,99999999' 
WAVCIS,ioos:station:WAVCIS:CSI06:1,2009-04-07T16:00:00Z,28.8667,-90.4833,10.0,8.19,330.0,,'11111222,11111222,99999999' 
WAVCIS,ioos:station:WAVCIS:CSI06:1,2009-04-07T17:00:00Z,28.8667,-90.4833,10.0,6.446,328.0,,'11111222,11111222,99999999' 
WAVCIS,ioos:station:WAVCIS:CSI06:1,2009-04-07T18:00:00Z,28.8667,-90.4833,10.0,7.09,309.0,,'11111222,11111222,99999999' 
WAVCIS,ioos:station:WAVCIS:CSI06:1,2009-04-07T19:00:00Z,28.8667,-90.4833,10.0,6.733,289.0,,'11111222,11111222,99999999' 
WAVCIS,ioos:station:WAVCIS:CSI06:1,2009-04-07T20:00:00Z,28.8667,-90.4833,10.0,8.08,285.0,,'11111222,11111222,99999999' 
WAVCIS,ioos:station:WAVCIS:CSI06:1,2009-04-07T21:00:00Z,28.8667,-90.4833,10.0,9.55,281.0,,'11111222,11111222,99999999' 
WAVCIS,ioos:station:WAVCIS:CSI06:1,2009-04-07T22:00:00Z,28.8667,-90.4833,10.0,10.88,282.0,,'11111222,11111222,99999999' 
WAVCIS,ioos:station:WAVCIS:CSI06:1,2009-04-07T23:00:00Z,28.8667,-90.4833,10.0,9.89,293.0,,'11111222,11111222,99999999' 
WAVCIS,ioos:station:WAVCIS:CSI06:1,2009-04-08T00:00:00Z,28.8667,-90.4833,10.0,8.71,286.0,,'11111222,11111222,99999999' 
WAVCIS,ioos:station:WAVCIS:CSI06:1,2009-04-08T01:00:00Z,28.8667,-90.4833,10.0,8.8,293.0,,'11111222,11111222,99999999' 
WAVCIS,ioos:station:WAVCIS:CSI06:1,2009-04-08T02:00:00Z,28.8667,-90.4833,10.0,7.74,294.0,,'11111222,11111222,99999999' 
WAVCIS,ioos:station:WAVCIS:CSI06:1,2009-04-08T03:00:00Z,28.8667,-90.4833,10.0,7.26,290.0,,'11111222,11111222,99999999' 
WAVCIS,ioos:station:WAVCIS:CSI06:1,2009-04-08T04:00:00Z,28.8667,-90.4833,10.0,6.276,299.0,,'11111222,11111222,99999999' 
WAVCIS,ioos:station:WAVCIS:CSI06:1,2009-04-08T05:00:00Z,28.8667,-90.4833,10.0,5.295,289.0,,'11111222,11111222,99999999' 
WAVCIS,ioos:station:WAVCIS:CSI06:1,2009-04-08T06:00:00Z,28.8667,-90.4833,10.0,4.868,268.0,,'11111222,11111222,99999999' 
WAVCIS,ioos:station:WAVCIS:CSI06:1,2009-04-08T07:00:00Z,28.8667,-90.4833,10.0,5.959,279.0,,'11111222,11111222,99999999' 
WAVCIS,ioos:station:WAVCIS:CSI06:1,2009-04-08T08:00:00Z,28.8667,-90.4833,10.0,6.438,279.0,,'11111222,11111222,99999999' 
WAVCIS,ioos:station:WAVCIS:CSI06:1,2009-04-08T09:00:00Z,28.8667,-90.4833,10.0,5.645,270.0,,'11111222,11111222,99999999' 
WAVCIS,ioos:station:WAVCIS:CSI06:1,2009-04-08T10:00:00Z,28.8667,-90.4833,10.0,4.587,282.0,,'11111222,11111222,99999999' 
WAVCIS,ioos:station:WAVCIS:CSI06:1,2009-04-08T11:00:00Z,28.8667,-90.4833,10.0,3.786,265.0,,'11111222,11111222,99999999' 
WAVCIS,ioos:station:WAVCIS:CSI06:1,2009-04-08T12:00:00Z,28.8667,-90.4833,10.0,3.512,244.0,,'11111222,11111222,99999999' 
WAVCIS,ioos:station:WAVCIS:CSI06:1,2009-04-08T13:00:00Z,28.8667,-90.4833,10.0,4.077,236.0,,'11111222,11111222,99999999' 
WAVCIS,ioos:station:WAVCIS:CSI06:1,2009-04-08T14:00:00Z,28.8667,-90.4833,10.0,4.334,224.0,,'11111222,11111222,99999999' 
WAVCIS,ioos:station:WAVCIS:CSI06:1,2009-04-08T15:00:00Z,28.8667,-90.4833,10.0,4.638,224.0,,'11111222,11111222,99999999' 
WAVCIS,ioos:station:WAVCIS:CSI06:1,2009-04-08T16:00:00Z,28.8667,-90.4833,10.0,5.915,225.0,,'11111222,11111222,99999999' 
WAVCIS,ioos:station:WAVCIS:CSI06:1,2009-04-08T17:00:00Z,28.8667,-90.4833,10.0,7.4,224.0,,'11111222,11111222,99999999' 
WAVCIS,ioos:station:WAVCIS:CSI06:1,2009-04-08T18:00:00Z,28.8667,-90.4833,10.0,7.84,234.0,,'11111222,11111222,99999999' 
WAVCIS,ioos:station:WAVCIS:CSI06:1,2009-04-08T19:00:00Z,28.8667,-90.4833,10.0,6.67,236.0,,'11111222,11111222,99999999' 
WAVCIS,ioos:station:WAVCIS:CSI06:1,2009-04-08T20:00:00Z,28.8667,-90.4833,10.0,7.7,240.0,,'11111222,11111222,99999999' 
WAVCIS,ioos:station:WAVCIS:CSI06:1,2009-04-08T21:00:00Z,28.8667,-90.4833,10.0,7.99,238.0,,'11111222,11111222,99999999' 
WAVCIS,ioos:station:WAVCIS:CSI06:1,2009-04-08T22:00:00Z,28.8667,-90.4833,10.0,7.38,241.0,,'11111222,11111222,99999999' 
WAVCIS,ioos:station:WAVCIS:CSI06:1,2009-04-08T23:00:00Z,28.8667,-90.4833,10.0,7.87,239.0,,'11111222,11111222,99999999' 
WAVCIS,ioos:station:WAVCIS:CSI06:1,2009-04-09T00:00:00Z,28.8667,-90.4833,10.0,8.28,236.0,,'11111222,11111222,99999999' 
WAVCIS,ioos:station:WAVCIS:CSI06:1,2009-04-09T01:00:00Z,28.8667,-90.4833,10.0,8.0,230.0,,'11111222,11111222,99999999' 
WAVCIS,ioos:station:WAVCIS:CSI06:1,2009-04-09T02:00:00Z,28.8667,-90.4833,10.0,8.16,224.0,,'11111222,11111222,99999999' 
WAVCIS,ioos:station:WAVCIS:CSI06:1,2009-04-09T03:00:00Z,28.8667,-90.4833,10.0,9.3,215.0,,'11111222,11111222,99999999' 
WAVCIS,ioos:station:WAVCIS:CSI06:1,2009-04-09T04:00:00Z,28.8667,-90.4833,10.0,9.8,213.0,,'11111222,11111222,99999999' 
WAVCIS,ioos:station:WAVCIS:CSI06:1,2009-04-09T05:00:00Z,28.8667,-90.4833,10.0,9.79,216.0,,'11111222,11111222,99999999' 